Regional Weather Roundup
Issued by NWS Green Bay, WI

Home | Current Version | Previous Version | Text Only | Print | Product List | Glossary On
Versions: 1 2 3 4 5 6 7 8 9 10 11 12 13 14 15 16 17 18 19 20 21 22 23 24 25 26 27 28 29 30 31 32 33 34 35 36 37 38 39 40 41 42 43 44 45 46 47 48 49 50
000
ASUS43 KGRB 060059
RWRGRB

NORTH-CENTRAL AND NORTHEAST WISCONSIN REGIONAL WEATHER ROUNDUP
NATIONAL WEATHER SERVICE GREEN BAY WI
700 PM CST THU MAR 05 2015

WIZ005-009-010>012-018-019-060200-
NORTH CENTRAL WISCONSIN

CITY           SKY/WX    TMP DP  RH WIND       PRES   REMARKS
IRONWOOD       CLEAR     10 -11  37 SW10      30.25F WCI  -3
MANITOWISH WTR NOT AVBL
ARBOR VITAE    NOT AVBL
EAGLE RIVER    NOT AVBL
LAND O LAKES   NOT AVBL
RHINELANDER    CLEAR      4 -12  48 W7        30.29S WCI  -8
PHILLIPS       CLEAR      4 -12  46 SW6       30.32R WCI  -6
ANTIGO         NOT AVBL
TOMAHAWK       NOT AVBL
MERRILL        NOT AVBL
$$

WIZ013-073-060200-
NORTHEAST WISCONSIN

CITY           SKY/WX    TMP DP  RH WIND       PRES   REMARKS
IRON MOUNTAIN  CLEAR     11 -10  38 SW6       30.30R WCI   1
MARINETTE      CLEAR     10  -8  44 SW7       30.39R WCI   0
$$

WIZ017-030-035>037-045-060200-
CENTRAL WISCONSIN

CITY           SKY/WX    TMP DP  RH WIND       PRES   REMARKS
MEDFORD        NOT AVBL
WAUSAU         PTCLDY     6  -9  50 W6        30.37R WCI  -4
MOSINEE        CLEAR      5  -9  51 SW5       30.38S WCI  -4
MARSHFIELD     PTCLDY     6  -9  50 W7        30.38S WCI  -6
WISC RAPIDS    PTCLDY    10  -9  42 W6        30.43R WCI   0
STEVENS POINT  NOT AVBL
WAUPACA        NOT AVBL
SHAWANO        NOT AVBL
CLINTONVILLE   NOT AVBL
$$

WIZ038-039-048-051-060200-
FOX VALLEY

CITY           SKY/WX    TMP DP  RH WIND       PRES   REMARKS
NWS GREEN BAY  CLEAR      8  -6  52 W5        30.44R WCI   0
APPLETON       CLEAR     10  -8  44 W7        30.42R WCI   0
OSHKOSH        CLEAR     11  -4  51 SW3       30.44R
FOND DU LAC    CLEAR     11  -4  51 SW6       30.45R WCI   1
$$

WIZ022-050-052-060200-
EAST CENTRAL WISCONSIN

CITY           SKY/WX    TMP DP  RH WIND       PRES   REMARKS
STURGEON BAY   CLEAR      9  -8  47 SW12      30.43R WCI  -6
MANITOWOC      NOT AVBL
SHEBOYGAN      CLEAR      6  -6  57 SW7       30.46R WCI  -6
$$

LMZ563-521-522-541>543-060200-
LAKESHORE

STATION/POSITION TIME  TEMP    WIND        PRES    VSBY  WAVE
                       AIR SEA DIR/SP/G                  HT/PER
                 (UTC) (F)     (DEG/KT/KT) (MB)    (MI)  (FT/S)
SHEBOYGAN LKSHOR 0000   14     250/  8/  9 1033.4R
KEWAUNEE LKSHORE 0000   11     230/  5/  8 1029.7R
NORTHPORT PIER   0000   12     190/  3/  8 1028.8S
CHAMBERS ISLAND  0000   11     190/  8/ 16 1029.1R
MENOMINEE LKSHOR 0000   12     200/  6     1029.9R
$$


USA.gov is the U.S. government's official web portal to all federal, state and local government web resources and services.